This is the latest recevied weather packets stored in our database for station/object W8RSN-13. If no packets are shown the sender has not sent any weather packets the latest 10 day(s).
| Time | Temp. | Humidity | Pressure | Rain* | Wind** | Luminosity | Snow |
|---|---|---|---|---|---|---|---|
| 1788374367 | 25° C | 47% | 1018.3 hPa | - | - | - | - |
| 1788374066 | 25.56° C | 46% | 1017.9 hPa | - | - | - | - |
| 1788373765 | 25.56° C | 46% | 1017.9 hPa | - | - | - | - |
| 1788373464 | 25.56° C | 44% | 1018.1 hPa | - | - | - | - |
| 1788373163 | 25° C | 46% | 1018.2 hPa | - | - | - | - |
| 1788372863 | 25° C | 43% | 1018.3 hPa | - | - | - | - |
| 1788372562 | 24.44° C | 44% | 1018.2 hPa | - | - | - | - |
| 1788372261 | 24.44° C | 44% | 1018.3 hPa | - | - | - | - |
| 1788371960 | 24.44° C | 44% | 1018.3 hPa | - | - | - | - |
| 1788371659 | 24.44° C | 46% | 1018.3 hPa | - | - | - | - |
| 1788371358 | 23.89° C | 48% | 1018.3 hPa | - | - | - | - |
| 1788371057 | 23.89° C | 49% | 1018.2 hPa | - | - | - | - |
| 1788370756 | 23.89° C | 50% | 1018.3 hPa | - | - | - | - |
| 1788370455 | 23.89° C | 49% | 1018.3 hPa | - | - | - | - |
| 1788370175 | 23.89° C | 48% | 1018.1 hPa | - | - | - | - |
| 1788369874 | 23.33° C | 48% | 1018.3 hPa | - | - | - | - |
| 1788369573 | 22.78° C | 50% | 1018.4 hPa | - | - | - | - |
| 1788369272 | 22.78° C | 51% | 1018.4 hPa | - | - | - | - |
| 1788368971 | 22.78° C | 50% | 1018.5 hPa | - | - | - | - |
| 1788368670 | 22.78° C | 51% | 1018.4 hPa | - | - | - | - |
| 1788368369 | 22.78° C | 53% | 1018.5 hPa | - | - | - | - |
| 1788368068 | 22.78° C | 53% | 1018.5 hPa | - | - | - | - |
| 1788367768 | 22.22° C | 53% | 1018.2 hPa | - | - | - | - |
| 1788367467 | 22.22° C | 54% | 1018.3 hPa | - | - | - | - |
| 1788367166 | 22.22° C | 52% | 1018.3 hPa | - | - | - | - |
* Rain since midnight (hover to see other rain measurements)
** Current wind speed in m/s (hover to see current wind gust speed)